Location: Tr�vern
(48.0333°N, 4.6000°W)
Time: 02:53:14
(UTC+00:00)

BREEZE-M DEB (TANK) - Pass Details

Date: 14 July 2020
Orbit: 274 x 20503 km, 49.2° (Epoch: 04 August)

Event Time Altitude Azimuth Distance (km) Brightness Sun altitude
Exits shadow 01:55:21 30° 268° (W) 772 3.3 -17.4°
Maximum altitude 01:56:30 60° 198° (SSW) 578 2.6 -17.3°
Drops below altitude 10° 02:02:32 10° 119° (ESE) 3,331 6.7 -16.9°
Sets 02:08:19 0° 117° (ESE) 6,053 8.1 -16.5°
